Location: �perlecques
(50.8057°N, 2.1521°E)
Time: 19:10:05
(UTC+00:00)

Vanguard 3 - Pass Details

Date: 06 August 2021
Orbit: 510 x 3260 km, 33.3° (Epoch: 17 September)

Event Time Altitude Azimuth Distance (km) Brightness Sun altitude
Rises 20:35:36 0° 266° (W) 6,112 12.4 -9.6°
Reaches altitude 10° 20:39:46 10° 258° (WSW) 5,423 11.9 -10.1°
Maximum altitude 20:54:17 35° 202° (SSW) 4,385 10.6 -11.7°
Enters shadow 21:08:41 14° 150° (SSE) 5,760 10.8 -13.3°
